METAR LSZS 171750Z AUTO 33004KT 290V040 9999 BKN060 16/04 Q1022=
Diese Daten sind ohne Gewähr und dürfen nicht für die Flugvorbereitung verwendet werden.
Information contained in this website shall not be used for flight operation purposes.